OAS4819 SKBO-SKAR

Flight info

Callsign OAS4819
Flight time 0h 25m
Altitude 18000
Route ISNOX2S ISNOX ISNOX1J
Aircraft A320/M-SDE3FGHIRWY/LB1

Departure

Time 2026-05-05 17:33
Airport El Dorado International Airport (SKBO)

Arrival

Time 2026-05-05 17:58
Airport El Eden Airport (SKAR)
Time Latitude Longitude Altitude Speed Heading
2026-05-05 17:11 4.69900 -74.14496 8393 ft 0 kts 208°
2026-05-05 17:19 4.69905 -74.14493 8366 ft 4 kts 208°
2026-05-05 17:19 4.69929 -74.14479 8366 ft 4 kts 216°
2026-05-05 17:19 4.69945 -74.14465 8366 ft 4 kts 260°
2026-05-05 17:20 4.69941 -74.14441 8366 ft 4 kts 300°
2026-05-05 17:20 4.69927 -74.14420 8366 ft 2 kts 307°
2026-05-05 17:20 4.69939 -74.14437 8366 ft 4 kts 307°
2026-05-05 17:20 4.69955 -74.14459 8366 ft 4 kts 307°
2026-05-05 17:21 4.69959 -74.14463 8366 ft 0 kts 307°
2026-05-05 17:23 4.69974 -74.14483 8366 ft 6 kts 307°
2026-05-05 17:23 4.70000 -74.14519 8366 ft 7 kts 306°
2026-05-05 17:23 4.70036 -74.14564 8366 ft 11 kts 314°
2026-05-05 17:24 4.70104 -74.14617 8366 ft 13 kts 320°
2026-05-05 17:24 4.70158 -74.14686 8366 ft 13 kts 268°
2026-05-05 17:24 4.70100 -74.14750 8366 ft 13 kts 215°
2026-05-05 17:24 4.70029 -74.14803 8366 ft 13 kts 217°
2026-05-05 17:25 4.69955 -74.14858 8366 ft 13 kts 216°
2026-05-05 17:25 4.69906 -74.14895 8366 ft 13 kts 216°
2026-05-05 17:25 4.69865 -74.14990 8366 ft 13 kts 306°
2026-05-05 17:25 4.69923 -74.15066 8366 ft 14 kts 307°
2026-05-05 17:26 4.69985 -74.15147 8366 ft 15 kts 308°
2026-05-05 17:26 4.70046 -74.15232 8366 ft 15 kts 305°
2026-05-05 17:26 4.70112 -74.15316 8365 ft 16 kts 307°
2026-05-05 17:26 4.70179 -74.15408 8365 ft 17 kts 308°
2026-05-05 17:27 4.70252 -74.15501 8365 ft 17 kts 308°
2026-05-05 17:27 4.70326 -74.15598 8365 ft 18 kts 308°
2026-05-05 17:27 4.70401 -74.15698 8366 ft 18 kts 307°
2026-05-05 17:27 4.70479 -74.15801 8365 ft 19 kts 307°
2026-05-05 17:28 4.70559 -74.15905 8366 ft 19 kts 306°
2026-05-05 17:28 4.70639 -74.16013 8366 ft 19 kts 306°
2026-05-05 17:28 4.70720 -74.16122 8366 ft 19 kts 308°
2026-05-05 17:28 4.70801 -74.16226 8366 ft 19 kts 306°
2026-05-05 17:29 4.70875 -74.16325 8366 ft 17 kts 307°
2026-05-05 17:29 4.70941 -74.16413 8366 ft 14 kts 307°
2026-05-05 17:29 4.70995 -74.16485 8366 ft 12 kts 306°
2026-05-05 17:29 4.71039 -74.16548 8366 ft 11 kts 309°
2026-05-05 17:30 4.71085 -74.16602 8366 ft 10 kts 310°
2026-05-05 17:30 4.71133 -74.16664 8366 ft 12 kts 304°
2026-05-05 17:30 4.71176 -74.16722 8366 ft 9 kts 309°
2026-05-05 17:30 4.71229 -74.16790 8366 ft 15 kts 307°
2026-05-05 17:31 4.71230 -74.16869 8366 ft 12 kts 231°
2026-05-05 17:31 4.71154 -74.16896 8364 ft 13 kts 176°
2026-05-05 17:31 4.71069 -74.16895 8363 ft 11 kts 210°
2026-05-05 17:31 4.71031 -74.16889 8363 ft 6 kts 136°
2026-05-05 17:32 4.71025 -74.16882 8363 ft 1 kts 129°
2026-05-05 17:32 4.70946 -74.16779 8363 ft 50 kts 128°
2026-05-05 17:32 4.70595 -74.16328 8366 ft 112 kts 125°
2026-05-05 17:32 4.70022 -74.15557 8364 ft 162 kts 126°
2026-05-05 17:33 4.69288 -74.14576 8741 ft 182 kts 129°
2026-05-05 17:33 4.68451 -74.13546 9255 ft 203 kts 138°
2026-05-05 17:33 4.67072 -74.13036 9663 ft 228 kts 181°
2026-05-05 17:33 4.65553 -74.13595 10057 ft 245 kts 220°
2026-05-05 17:34 4.64490 -74.14960 10589 ft 252 kts 238°
2026-05-05 17:34 4.63671 -74.16526 11201 ft 255 kts 241°
2026-05-05 17:34 4.62867 -74.18122 11814 ft 258 kts 240°
2026-05-05 17:34 4.61990 -74.19703 12385 ft 260 kts 237°
2026-05-05 17:35 4.61328 -74.21362 12851 ft 272 kts 257°
2026-05-05 17:35 4.61030 -74.23322 12997 ft 295 kts 259°
2026-05-05 17:35 4.60677 -74.25428 13128 ft 318 kts 258°
2026-05-05 17:35 4.60144 -74.27652 13238 ft 338 kts 245°
2026-05-05 17:36 4.59124 -74.29853 13340 ft 358 kts 241°
2026-05-05 17:36 4.57957 -74.32140 13437 ft 378 kts 240°
2026-05-05 17:36 4.56701 -74.34512 13581 ft 393 kts 240°
2026-05-05 17:36 4.55403 -74.36952 14044 ft 399 kts 240°
2026-05-05 17:37 4.54104 -74.39423 14481 ft 403 kts 240°
2026-05-05 17:37 4.53244 -74.41078 14787 ft 405 kts 241°
2026-05-05 17:37 4.51507 -74.44458 15370 ft 410 kts 242°
2026-05-05 17:37 4.50645 -74.46150 15674 ft 412 kts 241°
2026-05-05 17:38 4.49338 -74.48718 16172 ft 415 kts 242°
2026-05-05 17:38 4.48020 -74.51304 16598 ft 418 kts 242°
2026-05-05 17:38 4.46689 -74.53908 17018 ft 421 kts 242°
2026-05-05 17:38 4.45347 -74.56526 17435 ft 425 kts 242°
2026-05-05 17:39 4.43992 -74.59168 17838 ft 428 kts 242°
2026-05-05 17:39 4.42630 -74.61821 17955 ft 431 kts 242°
2026-05-05 17:39 4.41233 -74.64541 17965 ft 444 kts 242°
2026-05-05 17:39 4.39800 -74.67334 17950 ft 457 kts 242°
2026-05-05 17:40 4.38333 -74.70197 17939 ft 468 kts 242°
2026-05-05 17:40 4.36830 -74.73122 17929 ft 475 kts 242°
2026-05-05 17:40 4.35315 -74.76067 17921 ft 476 kts 242°
2026-05-05 17:40 4.33829 -74.78974 17921 ft 477 kts 244°
2026-05-05 17:41 4.32654 -74.82132 17922 ft 478 kts 255°
2026-05-05 17:41 4.32089 -74.85368 17916 ft 479 kts 265°
2026-05-05 17:41 4.32102 -74.88703 17924 ft 479 kts 276°
2026-05-05 17:41 4.32684 -74.91988 17938 ft 479 kts 283°
2026-05-05 17:42 4.33435 -74.95241 17942 ft 479 kts 283°
2026-05-05 17:42 4.34188 -74.98496 18049 ft 479 kts 283°
2026-05-05 17:42 4.34938 -75.01749 18052 ft 479 kts 283°
2026-05-05 17:42 4.35684 -75.05008 18057 ft 480 kts 283°
2026-05-05 17:43 4.36425 -75.08267 18055 ft 480 kts 283°
2026-05-05 17:43 4.37164 -75.11527 18056 ft 480 kts 283°
2026-05-05 17:43 4.37908 -75.14781 18053 ft 480 kts 283°
2026-05-05 17:43 4.38656 -75.18048 18057 ft 480 kts 283°
2026-05-05 17:44 4.39405 -75.21316 18055 ft 481 kts 283°
2026-05-05 17:44 4.40154 -75.24575 18066 ft 481 kts 283°
2026-05-05 17:44 4.40905 -75.27839 18066 ft 476 kts 283°
2026-05-05 17:44 4.41641 -75.31048 18085 ft 470 kts 283°
2026-05-05 17:45 4.42372 -75.34231 18094 ft 469 kts 283°
2026-05-05 17:45 4.43105 -75.37418 18114 ft 470 kts 283°
2026-05-05 17:45 4.43837 -75.40609 18124 ft 470 kts 283°
2026-05-05 17:45 4.44568 -75.43806 18142 ft 470 kts 283°
2026-05-05 17:46 4.45298 -75.47003 18146 ft 471 kts 283°
2026-05-05 17:46 4.45911 -75.49680 18130 ft 471 kts 283°
2026-05-05 17:46 4.46562 -75.52887 18139 ft 471 kts 278°
2026-05-05 17:46 4.46743 -75.56116 18129 ft 470 kts 268°
2026-05-05 17:47 4.46420 -75.59339 17935 ft 457 kts 259°
2026-05-05 17:47 4.45733 -75.62392 17681 ft 442 kts 256°
2026-05-05 17:47 4.45047 -75.65344 17422 ft 428 kts 256°
2026-05-05 17:47 4.44387 -75.68208 17177 ft 416 kts 256°
2026-05-05 17:48 4.43804 -75.70752 16950 ft 400 kts 256°
2026-05-05 17:48 4.43213 -75.73336 16706 ft 379 kts 256°
2026-05-05 17:48 4.42639 -75.75838 16464 ft 359 kts 256°
2026-05-05 17:48 4.42088 -75.78228 16223 ft 346 kts 256°
2026-05-05 17:49 4.41548 -75.80561 15978 ft 342 kts 256°
2026-05-05 17:49 4.41016 -75.82894 15557 ft 344 kts 258°
2026-05-05 17:49 4.40859 -75.85258 15228 ft 338 kts 274°
2026-05-05 17:49 4.41318 -75.87555 14624 ft 337 kts 290°
2026-05-05 17:50 4.42368 -75.89638 14042 ft 334 kts 305°
2026-05-05 17:50 4.43778 -75.91471 13402 ft 331 kts 319°
2026-05-05 17:50 4.45702 -75.92653 12777 ft 323 kts 345°
2026-05-05 17:50 4.47836 -75.92879 12626 ft 297 kts
2026-05-05 17:51 4.49750 -75.92322 12271 ft 281 kts 32°
2026-05-05 17:51 4.51377 -75.91271 11767 ft 277 kts 37°
2026-05-05 17:51 4.52968 -75.90184 11289 ft 276 kts 37°
2026-05-05 17:51 4.54537 -75.89101 10898 ft 270 kts 37°
2026-05-05 17:52 4.56040 -75.88063 10758 ft 255 kts 37°
2026-05-05 17:52 4.57467 -75.87080 10541 ft 246 kts 37°
2026-05-05 17:52 4.58893 -75.86095 9952 ft 253 kts 36°
2026-05-05 17:52 4.60358 -75.85083 9413 ft 254 kts 36°
2026-05-05 17:53 4.61781 -75.84103 9221 ft 242 kts 36°
2026-05-05 17:53 4.63112 -75.83117 9065 ft 235 kts 47°
2026-05-05 17:53 4.63989 -75.81780 8963 ft 225 kts 72°
2026-05-05 17:53 4.64241 -75.80274 8655 ft 221 kts 95°
2026-05-05 17:54 4.63936 -75.78764 8100 ft 228 kts 104°
2026-05-05 17:54 4.63544 -75.77201 7560 ft 234 kts 104°
2026-05-05 17:54 4.63153 -75.75614 7203 ft 230 kts 104°
2026-05-05 17:54 4.62747 -75.74119 7049 ft 218 kts 115°
2026-05-05 17:55 4.61744 -75.73100 6905 ft 206 kts 161°
2026-05-05 17:55 4.60284 -75.73047 6743 ft 217 kts 192°
2026-05-05 17:55 4.58801 -75.73402 6493 ft 219 kts 194°
2026-05-05 17:55 4.57359 -75.73757 6234 ft 208 kts 193°
2026-05-05 17:56 4.56002 -75.74080 5938 ft 193 kts 193°
2026-05-05 17:56 4.54756 -75.74373 5725 ft 175 kts 193°
2026-05-05 17:56 4.53606 -75.74644 5490 ft 166 kts 194°
2026-05-05 17:56 4.52495 -75.74906 5267 ft 163 kts 193°
2026-05-05 17:57 4.51398 -75.75164 5036 ft 162 kts 194°
2026-05-05 17:57 4.50305 -75.75421 4829 ft 160 kts 194°
2026-05-05 17:57 4.49242 -75.75672 4633 ft 160 kts 194°
2026-05-05 17:57 4.48164 -75.75926 4428 ft 159 kts 194°
2026-05-05 17:58 4.47091 -75.76178 4214 ft 158 kts 193°
2026-05-05 17:58 4.46027 -75.76427 3994 ft 157 kts 193°
2026-05-05 17:58 4.45137 -75.76641 3966 ft 92 kts 193°
2026-05-05 17:58 4.44762 -75.76732 3964 ft 34 kts 194°
2026-05-05 17:59 4.44601 -75.76783 3961 ft 17 kts 191°
2026-05-05 17:59 4.44532 -75.76768 3964 ft 3 kts 222°
2026-05-05 17:59 4.44559 -75.76780 3960 ft 12 kts 351°
2026-05-05 17:59 4.44652 -75.76761 3963 ft 14 kts 13°
2026-05-05 18:00 4.44750 -75.76737 3964 ft 15 kts 14°
2026-05-05 18:00 4.44858 -75.76711 3962 ft 17 kts 11°
2026-05-05 18:00 4.44973 -75.76686 3964 ft 17 kts 15°
2026-05-05 18:00 4.45075 -75.76658 3964 ft 17 kts 13°
2026-05-05 18:01 4.45163 -75.76636 3964 ft 6 kts 12°
2026-05-05 18:01 4.45192 -75.76643 3967 ft 3 kts 331°
2026-05-05 18:01 4.45205 -75.76658 3967 ft 3 kts 306°
2026-05-05 18:01 4.45212 -75.76668 3966 ft 1 kts 304°
2026-05-05 18:02 4.45216 -75.76674 3968 ft 4 kts 304°
2026-05-05 18:02 4.45227 -75.76690 3968 ft 2 kts 304°
2026-05-05 18:02 4.45259 -75.76703 3967 ft 7 kts 358°
2026-05-05 18:02 4.45269 -75.76704 3967 ft 2 kts 353°
2026-05-05 18:03 4.45279 -75.76716 3967 ft 5 kts 301°
2026-05-05 18:03 4.45285 -75.76743 3967 ft 3 kts 283°
2026-05-05 18:03 4.45286 -75.76747 3967 ft 1 kts 283°